Погода в Махачкале

Погода в Махачкале : погода сейчас, прогноз погоды и архив. Всё, что Вы хотите узнать о погоде в Махачкале!

Поиск расширенной информации на нашем сайте:

Другие новости

Новости СМИ2

Главная страница сайта

Новости сайта

03.07.2017

Напоминаем, что на нашем специализированном сайте Метеоцентр.Азия вы можете получить высокодетализированные автоматические прогнозы погоды по пунктам России, СНГ и мира в авиационном формате (включающие направление и скорость ветра, видимость, явления погоды, количество и форму облачности, нижнюю и верхнюю границу облачности).


Погода в Махачкале - сегодня

Время (UTC), дата Ветер
(°,м/с) 
Видим.   Явления Облачность Т
(°С)
Тd
(°С)
f(%) Тe
(°С)
Pmin
(гПа)
dP
(гПа)
Po
(мм)
O2
(г/м3)
Тmin Tmax R s Состояние
почвы
21 22.09.18 130 (ЮВ) 20000 м    4/0 кучево-дожд., средняя, верхняя 
[Cb cap|Ac inh|Cs]
+20.5 +17.1 81 +21  1017.4  -0.5             
00 23.09.18 120 (ЮВ) 20000 м    8/0 кучево-дожд., средняя, верхняя 
[Cb cap|Ac inh|Cc]
+20.3 +17.8 86 +20  1016.9  -0.5             
03 23.09.18 140 (ЮВ) 10 км    9/8 600 м кучево-дожд., средняя, верхняя 
[Cb calv|Ac trans|Ci fib]
+20.9 +16.7 77 +32  1016.7  -0.2  764  282  +20.1        сухая 
06 23.09.18 120 (ЮВ) 20000 м  слаб. ливневой дождь  10/10 600 м кучево-дожд. 
[Cb calv]
+21.7 +18.5 82 +36  1016.9  0.3  764  281           
09 23.09.18 100 (В) 20000 м    ясно кучево-дожд., средняя, верхняя 
[Cb cap|Ac inh|Cs]
+23.7 +19.4 77 +24  1016.4  -0.5             
12 23.09.18 110 (В) 20000 м    3/0 средняя, верхняя 
[Ac As|Ci fib]
+23.8 +19.3 76 +40  1015.7  -0.7  763  278           
15 23.09.18 130 (ЮВ) 20000 м    6/0 средняя, верхняя 
[Ac As|Ci fib]
+22.1 +18.8 82 +38  1015.6  0.1  763  280      299    замёрзшая 
18 23.09.18 140 (ЮВ) 20000 м    ясно 
+21.4 +17.3 77 +34  1015.4  0.1  763  281           
21 23.09.18 140 (ЮВ) 20000 м    8/0 верхняя 
[Frnb|Ci sp]
+21.2 +18 82 +21  1015  -0.4             
00 24.09.18 240 (ЮЗ) 20000 м    ясно 
+16.2 +14 87 +25  1015.2  0.2  763  287           
03 24.09.18 300 (СЗ) 20000 м    9/0 средняя, верхняя 
[Ac As|Ci fib]
+16.5 +14 85 +25  1016.6  1.5  764  288  +15.8        сухая 
06 24.09.18 300 (СЗ) 6-12{12}  10 км    3/0 средняя, верхняя 
[Ac As|Ci fib]
+25.3 +12.7 46 +30  1018  1.3  765  280           
09 24.09.18 320 (СЗ) 10 км    ясно 
+27.2 +14 44 +34  1017.7  -0.3  765  278    +15.9      замёрзшая 
12 24.09.18 070 (В) 10 км    ясно средняя, верхняя 
[Sc|Ac inh|Cs]
+23.5 +18.7 74 +39  1017.7    750  274           
15 24.09.18 110 (В) 10 км    10/3 600 м средняя 
[Sc|Ac As]
+22.1 +17.5 75 +35  1018.4  0.7  765  281    +27.9       
18 24.09.18 110 (В) 10 км    6/0 средняя, верхняя 
[Ac As|Ci fib]
+21.4 +17.8 80 +35  1017.8  -0.6  765  282           
21 24.09.18 130 (ЮВ) 10 км    5/0 верхняя 
[Ci fib]
+20.8 +17.6 82 +34  1015.5  -2.3  763  282           
00 25.09.18 130 (ЮВ) 10 км    6/0 верхняя 
[Ci fib]
+20.2 +17.9 87 +34  1013.9  -1.6  762  282           
03 25.09.18 120 (ЮВ) 10 км    5/0 верхняя 
[Ci fib]
+20.1 +16.5 80 +31  1013.1  -0.8  761  282  +20.1        сухая 
06 25.09.18 120 (ЮВ) 5-10  10 км    ясно 
+23 +17.3 70 +35  1012  -1.1  761  279  +20.1        замёрзшая 
09 25.09.18 110 (В) 10 км    3/1 100 м средняя, верхняя 
[Cu hum|Ac cast|Ci fib]
+24.4 +19.4 74 +41  1011.2  -0.8  760  277          замёрзшая 
12 25.09.18 110 (В) 10 км    8/3 600 м верхняя 
[Frnb|Ci fib]
+23.3 +19.6 80 +23  1011.1  -0.2             
15 25.09.18 120 (ЮВ) 4000 м  дымка  8/3 600 м средняя, верхняя 
[Sc|Ac As|Ci fib]
+22.3 +20 87 +40  1011.8  0.8  760  278          замёрзшая 
18 25.09.18 120 (ЮВ) 4000 м  дымка  3/0 верхняя 
[Sc|Ci sp]
+22 +20 88 +22  1013  1.2             
21 25.09.18 140 (ЮВ) 4000 м  дымка  ясно 
+21.3 +19.6 90 +38  1013.7  0.6  762  280           
Время (UTC), дата Ветер
(°,м/с) 
Видим.   Явления Облачность Т
(°С)
Тd
(°С)
f(%) Тe
(°С)
Pmin
(гПа)
dP
(гПа)
Po
(мм)
O2
(г/м3)
Тmin Tmax R s Состояние
почвы

Для получения пояснительной информации подведите курсор к названию столбца.

ПОГОДА в Махачкале - архив

Всё, что Вы хотите узнать о погоде в Махачкале - удобно и подробно!

Выберите нужную дату (начиная с 1 января 2015* года) и нажмите кнопку "Найти".
Будут отображены архивные сводки погоды по пункту Махачкала, начиная с указанной даты.


Отображать данные в формате CSV (для использования в таблицах Excel)


Внимание! Наш архив погоды предназначен исключительно для личного некоммерческого использования в познавательных целях. Если Вам необходимы официальные справки о состоянии погоды (для производственных, юридических, коммерческих и т.п. целей), обращайтесь в органы Росгидромета.

*Примечание: данная дата относится к архиву по метеостанциям СССР (Россия, СНГ, Балтия).
Архив по метеостанциям Зарубежной Европы и Азии (кроме Китая) хранится 10 дней, по другим регионам земного шара (Китай, Африка, Америка, Австралия, Океания) - 1 день.

Махачкала - район местоположения метеостанции


Название, широта, долгота, высота метеостанции:
Махачкала 42.8°ш. 47.6°д. 32 м над ур. моря [Российская Федерация]

Дополнительная информация

В oтличие oт бoльшинства пoгoдных сайтoв мы публикуем пoдрoбную метеoинфoрмацию в детальнoм прoфессиoнальнoм фoрмате.

Характеристики температуры и влажнoсти вoздуха измеряются на высoте 2 м в тени вдали oт зданий и деревьев.
Скoрoсть ветра измеряется на высoте 10 м (на урoвне рoста челoвека скoрoсть ветра ниже в 1.5-2 раза). Если метеoстанция нахoдится в гoрoде или в лесу, тo скoрoсть ветра занижена на 2-4 м/с пo сравнению с oткрытым местoм. Скoрoсть ветра над акватoриями крупных рек и oзёр, а также на вершинах хoлмoв на 2-5 м/с выше, чем в oбычных услoвиях.
Атмoсфернoе давление в разных тoчках местнoсти мoжет значительнo oтличаться oт давления на метеoстанции, в зависимoсти oт услoвий рельефа (при пoдъёме на 10 м давление пoнижается примернo на 1 мм рт.ст.).